Location: Rumah Apan
(2.7833°N, 113.9500°E)
Time: 06:45:39
(UTC+00:00)

Okean-O - Visible Passes

Search period start: 02 December 2021 00:00
Search period end: 12 December 2021 00:00
Orbit: 638 x 640 km, 98.2° (Epoch: 01 December)

Date Brightness Start Highest point End Pass type
(mag) Time Alt. Az. Time Alt. Az. Time Alt. Az.
02 Dec 4.8 11:56:13 10° SSE 11:56:54 14° SSE 11:56:54 14° SSE visible
03 Dec 4.8 12:19:22 10° S 12:20:30 18° S 12:20:30 18° S visible
04 Dec 5.2 12:43:04 10° SSW 12:44:06 16° SSW 12:44:06 16° SSW visible
05 Dec 5.8 13:07:41 10° SW 13:07:43 10° SW 13:07:43 10° SW visible
06 Dec 4.7 11:52:49 10° SSE 11:53:44 16° SSE 11:53:44 16° SSE visible
07 Dec 4.6 12:15:53 10° S 12:17:19 21° S 12:17:19 21° S visible
08 Dec 5.0 12:39:28 10° SSW 12:40:55 19° SSW 12:40:55 19° SSW visible
09 Dec 5.6 13:03:52 10° SW 13:04:30 12° SW 13:04:30 12° SW visible
10 Dec 4.5 11:49:25 10° SSE 11:50:32 17° SE 11:50:32 17° SE visible
11 Dec 4.4 12:12:23 10° S 12:14:07 23° S 12:14:07 23° S visible
